[[{"header":{"parameterUnit":"m.s-1","parameterCategory":1,"la1":30.2991,"la2":30.254,"lo1":-89.0895,"lo2":-89.0444,"dy":0.0017,"dx":0.0017,"nx":28,"ny":28,"refTime":"2024-06-29T09:00:00:Z","depth":0,"parameterNumber":2,"parameterNumberName":"U-component_of_WINDS"},"data":[0,0,0,0,0,0,0,0,0,0,0,0,0,0,0,0,0,0,0,0,0,0,0,0,0,0,0,0,0,0,0,0,0,0,0,0,0,0,0,0,0,0,0,0,0,0,0,0,0,0,0,0,0,0,0,0,0,0,2.8756,2.8758,0,2.9024,2.9027,2.903,2.9039,2.9036,2.9032,2.9029,2.9325,2.9335,2.9346,0,0,0,0,0,0,0,0,0,0,0,0,0,2.8266,2.8274,2.8755,2.8759,2.8762,2.9024,2.9027,2.9031,2.904,2.9036,2.9032,2.9028,2.9321,2.9334,2.9347,0,0,0,0,0,0,0,0,0,0,0,0,0,2.8501,2.8277,2.8755,2.8797,2.8804,2.9023,2.9028,2.9032,2.9041,2.9036,2.9031,2.9026,2.9317,2.9333,2.9349,2.955,0,0,2.9399,2.9407,0,0,0,0,0,0,0,0,2.8488,2.8519,2.8788,2.8795,2.8802,2.8992,2.8963,2.9207,2.9042,2.8951,2.9029,2.9023,2.922,2.9244,2.9306,2.9564,2.9577,2.9401,2.9411,2.9418,2.9423,0,0,0,0,0,0,0,2.8472,2.8508,2.8862,2.8792,2.8801,2.8808,2.8836,2.9009,2.9111,2.8959,2.896,2.8991,2.9223,2.929,2.9313,2.9581,2.94,2.9415,2.9425,2.9432,3.0016,3.0022,0,0,0,0,0,0,2.8444,2.8494,2.8854,2.887,2.8629,2.8821,2.8852,2.8937,2.9109,2.913,2.8995,2.899,2.9264,2.9294,2.9323,2.9568,2.9418,2.9433,2.9443,3.0011,3.0018,3.0024,0,0,0,0,0,0,2.8434,2.8476,2.8843,2.8683,2.873,2.8835,2.893,2.8945,2.9012,2.9135,2.9155,2.9043,2.9262,2.93,2.9492,2.9579,2.9441,2.9456,3.0004,3.0013,3.0021,3.0061,0,0,0,0,0,0,2.842,2.8472,2.8546,2.8684,2.8738,2.9002,2.8935,2.8954,2.9038,2.9034,2.9187,2.9207,2.9261,2.9467,2.9508,2.9599,2.9468,2.9997,3.0008,3.0018,3.0052,3.007,3.0085,0,0,0,0,0,2.8402,2.8552,2.855,2.8593,2.8832,2.9007,2.9039,2.9091,2.9044,2.9122,2.9201,2.9202,2.9562,2.9487,2.9533,2.963,2.9992,3.0005,3.0017,3.0045,3.0066,3.0084,0,0,0,0,0,0,2.8431,2.8571,2.857,2.8768,2.8874,2.9008,2.9107,2.9113,2.924,2.9233,2.9298,2.9333,2.9523,2.9596,2.9509,2.9833,2.9772,2.9795,2.9778,2.9799,2.9815,2.9794,2.9482,0,0,0,0,0,2.8458,2.8582,2.8701,2.8865,2.8917,2.9003,2.9082,2.9111,2.9228,2.9275,2.9368,2.9486,2.9625,2.9716,2.9852,3.0062,3.0097,3.0152,3.0168,3.0181,3.02,3.0316,3.0342,3.0066,3.0066,3.0065,0,0,2.852,2.8612,2.8689,2.8873,2.8959,2.9091,2.9041,2.9185,2.9284,2.9299,2.9483,2.9555,2.9692,2.9892,2.9986,2.996,3.0283,3.0197,3.0206,3.0219,3.0332,3.0358,3.0381,3.0074,3.0073,3.0071,0,0,2.87,2.8781,2.8924,2.9009,2.9137,2.9192,2.9226,2.9358,2.9404,2.9588,2.96,2.9724,2.9962,3.0057,3.0137,3.0347,3.0353,3.039,3.0475,3.0587,3.0609,3.0629,3.0703,3.0729,3.0409,3.0409,3.0409,0,2.8763,2.8955,2.9,2.914,2.9221,2.9231,2.9379,2.9462,2.9631,2.9689,2.9655,2.9951,3.0044,3.0266,3.0316,3.0381,3.0425,3.0374,3.0601,3.0621,3.064,3.0712,3.074,3.0412,3.0412,3.0411,3.0411,0,2.9026,2.916,2.9262,2.9414,2.9507,2.9651,2.9721,2.9811,2.9832,2.9891,3.0079,3.0189,3.0345,3.0401,3.0427,3.0627,3.0606,3.0586,3.0527,3.0669,3.0738,3.0766,3.0417,3.0416,3.0415,3.0414,0,0,2.9236,2.9404,2.9441,2.9509,2.9648,2.9756,2.9901,3.0046,3.0121,3.0237,3.0362,3.0561,3.0541,3.0631,3.0668,3.0766,3.0924,3.0734,3.0738,3.0765,3.1151,3.1166,3.1197,3.0927,3.0933,3.0937,3.114,0,2.943,2.968,2.9721,2.9943,3.0067,3.0077,3.0203,3.0305,3.0364,3.0483,3.0551,3.069,3.0654,3.0708,3.0805,3.0883,3.1002,3.087,3.1049,3.1055,3.1014,3.1233,3.125,3.1435,3.1167,3.1172,3.1175,0,2.9692,2.9803,3.0034,3.0152,3.0206,3.0318,3.0453,3.0565,3.0681,3.0717,3.0814,3.0838,3.0993,3.0924,3.114,3.1049,3.1125,3.1174,3.1183,3.1203,3.1124,3.1259,3.1496,3.1524,3.1218,3.1214,3.1211,0,2.982,3.003,3.0194,3.0252,3.0394,3.0472,3.0537,3.0647,3.073,3.085,3.0905,3.1044,3.1121,3.123,3.1292,3.1236,3.1504,3.1441,3.1542,3.154,3.16,3.1595,3.1852,3.1647,3.1646,3.1646,3.1645,0,3.0034,3.0175,3.0253,3.0354,3.0513,3.0561,3.0719,3.0783,3.0879,3.0997,3.1016,3.1128,3.1201,3.1325,3.1375,3.1546,3.1581,3.1618,3.163,3.1616,3.1612,3.1668,3.1658,3.1653,3.1652,3.165,3.1649,0,3.0206,3.0263,3.0443,3.0559,3.0591,3.0703,3.0806,3.0907,3.0963,3.1111,3.1149,3.124,3.1385,3.1456,3.164,3.1673,3.1867,3.1871,3.1825,3.183,3.1926,3.1916,3.223,3.2274,3.2038,3.204,3.2042,0,3.0339,3.0446,3.0571,3.0646,3.0709,3.0833,3.0915,3.0966,3.1052,3.1189,3.1275,3.1418,3.1536,3.1768,3.1855,3.1995,3.2003,3.2102,3.2025,3.2007,3.2005,3.1997,3.2009,3.2118,3.212,3.2122,3.2123,0,3.0569,3.059,3.0704,3.0827,3.0922,3.1024,3.1124,3.1187,3.1255,3.1351,3.1495,3.1585,3.1767,3.1911,3.2055,3.2128,3.2139,3.2146,3.2177,3.2165,3.2134,3.2152,3.1864,3.214,3.2138,3.2137,3.2136,3.2135,3.0727,3.0821,3.0921,3.1047,3.1125,3.1217,3.1316,3.138,3.1498,3.1644,3.1669,3.1822,3.1935,3.2128,3.2205,3.2329,3.2307,3.2352,3.2364,3.2374,3.2379,3.2111,3.2356,3.2355,3.2355,3.2355,3.2354,0,3.0958,3.102,3.1135,3.1269,3.1368,3.1359,3.1469,3.1555,3.1686,3.1786,3.1898,3.2063,3.2201,3.2295,3.2436,3.2518,3.2526,3.2553,3.2549,3.2565,3.239,3.2349,3.2544,3.2544,3.2544,3.2544,3.2543,3.2543,3.109,3.1248,3.128,3.1478,3.1542,3.1685,3.1748,3.1834,3.1913,3.2093,3.2204,3.2261,3.236,3.2507,3.2634,3.2659,3.2711,3.2738,3.2763,3.2598,3.2578,3.2559,3.2521,3.2748,3.2749,3.2928,3.2929,3.2931]},{"header":{"parameterUnit":"m.s-1","parameterCategory":1,"la1":30.2991,"la2":30.254,"lo1":-89.0895,"lo2":-89.0444,"dy":0.0017,"dx":0.0017,"nx":28,"ny":28,"refTime":"2024-06-29T09:00:00:Z","depth":0,"parameterNumber":3,"parameterNumberName":"V-component_of_WINDS"},"data":[0,0,0,0,0,0,0,0,0,0,0,0,0,0,0,0,0,0,0,0,0,0,0,0,0,0,0,0,0,0,0,0,0,0,0,0,0,0,0,0,0,0,0,0,0,0,0,0,0,0,0,0,0,0,0,0,0,0,2.3128,2.313,0,2.3266,2.3267,2.3269,2.3367,2.3368,2.3369,2.337,2.3502,2.3505,2.3507,0,0,0,0,0,0,0,0,0,0,0,0,0,2.294,2.2943,2.3128,2.313,2.3132,2.3266,2.3267,2.3269,2.3367,2.3368,2.3369,2.337,2.3501,2.3504,2.3508,0,0,0,0,0,0,0,0,0,0,0,0,0,2.3044,2.2944,2.3128,2.3197,2.3204,2.3265,2.3268,2.327,2.3367,2.3368,2.3369,2.3371,2.35,2.3504,2.3508,2.3509,0,0,2.3521,2.3523,0,0,0,0,0,0,0,0,2.3038,2.3051,2.3185,2.3192,2.3201,2.3301,2.325,2.335,2.3367,2.3305,2.337,2.3371,2.3434,2.3443,2.3466,2.3515,2.3521,2.3521,2.3524,2.3525,2.3527,0,0,0,0,0,0,0,2.3031,2.3045,2.3182,2.3187,2.3196,2.3218,2.3234,2.3269,2.336,2.331,2.3318,2.3333,2.3438,2.3462,2.347,2.3523,2.3521,2.3525,2.3527,2.3529,2.3575,2.3574,0,0,0,0,0,0,2.3014,2.3039,2.3178,2.3187,2.3121,2.322,2.3238,2.3267,2.336,2.3376,2.3332,2.3337,2.3454,2.3465,2.3475,2.3479,2.3525,2.3529,2.3532,2.3576,2.3574,2.3573,0,0,0,0,0,0,2.301,2.3026,2.3173,2.3115,2.3135,2.3222,2.3254,2.3269,2.3294,2.3377,2.3393,2.334,2.3456,2.3469,2.3499,2.3485,2.3531,2.3535,2.3577,2.3576,2.3574,2.3489,0,0,0,0,0,0,2.3004,2.3023,2.3027,2.3114,2.3138,2.3198,2.3253,2.3271,2.3301,2.3309,2.3389,2.3403,2.3458,2.3493,2.3503,2.3492,2.3538,2.3579,2.3577,2.3574,2.3494,2.3485,2.3477,0,0,0,0,0,2.2997,2.2997,2.3027,2.3043,2.3145,2.3197,2.321,2.3275,2.33,2.3302,2.3355,2.34,2.3485,2.3495,2.3508,2.3497,2.358,2.3577,2.3575,2.3497,2.3486,2.3477,0,0,0,0,0,0,2.2904,2.301,2.3044,2.3073,2.3125,2.3213,2.3219,2.3262,2.3306,2.3312,2.3388,2.3405,2.3427,2.3465,2.3474,2.3501,2.3538,2.3538,2.3475,2.3465,2.3457,2.3446,2.3542,0,0,0,0,0,2.2887,2.2923,2.3013,2.3029,2.3054,2.3131,2.3157,2.3202,2.3258,2.328,2.3336,2.3386,2.3424,2.3447,2.3486,2.35,2.3516,2.3499,2.349,2.3483,2.3481,2.3487,2.3479,2.3564,2.3564,2.3564,0,0,2.2852,2.2914,2.2932,2.3012,2.3058,2.309,2.315,2.3182,2.3205,2.3284,2.3317,2.3358,2.3419,2.344,2.3452,2.3473,2.3461,2.3479,2.3473,2.3475,2.3483,2.3475,2.3468,2.3562,2.3562,2.3563,0,0,2.2805,2.2857,2.2876,2.292,2.2989,2.304,2.3044,2.3125,2.3157,2.3191,2.325,2.3277,2.3342,2.3381,2.341,2.3374,2.3415,2.3385,2.334,2.3345,2.3339,2.3333,2.3317,2.3311,2.3383,2.3383,2.3382,0,2.2752,2.2806,2.2879,2.2907,2.2939,2.3013,2.303,2.3069,2.3146,2.3164,2.3187,2.3268,2.3314,2.3344,2.3335,2.3356,2.336,2.3375,2.3335,2.333,2.3325,2.3311,2.3305,2.3378,2.3379,2.3379,2.338,0,2.2736,2.2772,2.2778,2.2852,2.2885,2.2907,2.2979,2.3002,2.3044,2.3091,2.3122,2.318,2.3231,2.3242,2.3283,2.3276,2.3286,2.3321,2.3359,2.3312,2.3299,2.3294,2.3372,2.3373,2.3375,2.3376,0,0,2.2635,2.2748,2.2749,2.2782,2.2862,2.289,2.2913,2.2965,2.2982,2.3032,2.3051,2.3102,2.3134,2.3166,2.3212,2.3217,2.318,2.325,2.3253,2.3232,2.3171,2.3143,2.3136,2.3209,2.3208,2.3207,2.3165,0,2.2598,2.2648,2.2712,2.2738,2.277,2.284,2.286,2.2909,2.2953,2.2983,2.3031,2.3065,2.3106,2.3125,2.3133,2.3183,2.3168,2.3187,2.3223,2.3224,2.3204,2.313,2.3101,2.3059,2.3161,2.316,2.316,0,2.2563,2.261,2.2639,2.2714,2.273,2.2747,2.2798,2.2828,2.2883,2.2914,2.2949,2.2998,2.3022,2.3058,2.309,2.3101,2.3119,2.3145,2.3145,2.3149,2.3187,2.3129,2.3048,2.304,2.3154,2.3154,2.3155,0,2.2482,2.2553,2.258,2.2606,2.2695,2.2704,2.2741,2.2798,2.2824,2.2867,2.2884,2.2928,2.2952,2.2984,2.3042,2.3063,2.3066,2.3108,2.3089,2.3087,2.3085,2.3084,2.3002,2.3101,2.3101,2.3101,2.3101,0,2.2434,2.2448,2.2544,2.256,2.2577,2.2649,2.2662,2.2705,2.2754,2.2776,2.2839,2.2858,2.2935,2.2962,2.3007,2.3024,2.3035,2.3058,2.3069,2.3051,2.3048,2.3063,2.3066,2.31,2.31,2.31,2.3101,0,2.2347,2.2413,2.2445,2.2526,2.2546,2.2554,2.2622,2.2637,2.2684,2.2711,2.2722,2.2794,2.2829,2.289,2.2942,2.2972,2.2979,2.3001,2.296,2.2967,2.2944,2.2944,2.2867,2.2859,2.2964,2.2963,2.2963,0,2.2311,2.2324,2.2405,2.2426,2.246,2.2493,2.2519,2.2589,2.2613,2.2676,2.2682,2.2722,2.2758,2.2808,2.2863,2.2902,2.2923,2.2893,2.2929,2.2909,2.2919,2.2916,2.2916,2.2884,2.2883,2.2882,2.2881,0,2.2238,2.2269,2.2307,2.2354,2.2385,2.2425,2.2468,2.248,2.2559,2.2582,2.2619,2.2646,2.2699,2.2736,2.2782,2.2816,2.2859,2.2869,2.2866,2.2847,2.2822,2.2832,2.2935,2.287,2.2871,2.2872,2.2873,2.2873,2.2174,2.2187,2.2246,2.2284,2.2324,2.2362,2.238,2.2429,2.2462,2.2511,2.2549,2.2582,2.2633,2.2699,2.2731,2.2754,2.2775,2.2772,2.2771,2.2768,2.2759,2.282,2.2763,2.2764,2.2764,2.2765,2.2765,0,2.2102,2.2143,2.2178,2.2236,2.2265,2.2306,2.2355,2.2375,2.2404,2.2449,2.2482,2.2522,2.2557,2.2614,2.2653,2.2661,2.2681,2.2668,2.2667,2.2673,2.274,2.2737,2.2651,2.2651,2.2651,2.2651,2.2651,2.2651,2.2068,2.2092,2.2129,2.217,2.2211,2.2244,2.2268,2.2302,2.2338,2.238,2.241,2.2448,2.2496,2.2539,2.2572,2.2587,2.2597,2.2577,2.2598,2.2659,2.2669,2.2679,2.2677,2.2579,2.2579,2.2529,2.2529,2.2528]}]]